Regional Weather Roundup
Issued by NWS

Home | Current Version | Previous Version | Graphics & Text | Print | Product List | Glossary Off
Versions: 1 2 3 4 5 6 7 8 9 10 11 12 13 14 15 16 17 18 19 20 21 22 23 24 25 26 27 28 29 30 31 32 33 34 35 36 37 38 39 40 41 42 43 44 45 46 47 48 49 50

000
ASUS43 KTOP 201108
RWRKS

WEATHER ROUNDUP FOR KANSAS
NATIONAL WEATHER SERVICE GOODLAND KS
600 AM CDT WED AUG 20 2014

NOTE:  "FAIR" INDICATES FEW OR NO CLOUDS BELOW 12,000 FEET WITH NO
SIGNIFICANT WEATHER AND/OR OBSTRUCTIONS TO VISIBILITY.

KSZ001>006-013>018-027>032-041>047-201200-
NORTHWEST KANSAS

CITY           SKY/WX    TMP DP  RH WIND       PRES   REMARKS
GOODLAND       MOCLDY    72  60  66 S12       29.82S
HAYS           PTCLDY    72  61  68 SW8       29.82R
HILL CITY      CLOUDY    73  63  70 CALM      29.80S
RUSSELL        CLEAR     73  63  70 S14       29.79S
$$

KSZ061>065-074>080-084>089-201200-
SOUTHWEST KANSAS

CITY           SKY/WX    TMP DP  RH WIND       PRES   REMARKS
DODGE CITY     CLEAR     68  62  81 S8        29.85S
ELKHART          N/A     66  60  81 S9          N/A
GARDEN CITY    CLEAR     66  62  87 S8        29.84S
GREAT BEND     CLEAR     72  61  68 S9        29.82S
LIBERAL        CLEAR     70  61  73 S9        29.88S
PRATT          CLEAR     70  61  73 S9        29.85S
$$

KSZ066>073-081>083-090>101-201200-
SOUTHEAST KANSAS

CITY           SKY/WX    TMP DP  RH WIND       PRES   REMARKS
CHANUTE        CLEAR     73  69  87 S8        29.87S FOG
COFFEYVILLE    CLEAR     74  72  93 S7        29.87S
HUTCHINSON     CLEAR     73  65  75 S9        29.84S
MEDICINE LODGE   N/A     71  64  78 SE7       29.84S
NEWTON         CLEAR     73  63  68 S13       29.88R
PARSONS        CLEAR     75  71  87 S5        29.88S
WICHITA INTL   PTCLDY    73  67  81 S9        29.84S
WICHITA JABRA  CLEAR     74  68  81 S10       29.85R
WICHITA MCCONL CLEAR     74  72  93 S10       29.86R
WINFIELD       CLEAR     73  69  87 SE9       29.87R
$$

KSZ007>012-019>026-033>040-048>060-102>105-201200-
NORTHEAST KANSAS

CITY           SKY/WX    TMP DP  RH WIND       PRES   REMARKS
CONCORDIA      PTCLDY    72  66  81 S7        29.80S
EMPORIA        PTCLDY    71  68  90 S8        29.84S
LAWRENCE       MOCLDY    79  68  69 S3        29.82S
MANHATTAN      PTCLDY    76  68  76 SW10      29.81R
MARYSVILLE     MOCLDY    75  68  78 SW9       29.80R
OLATHE IND     MOCLDY    76  69  79 SW10      29.84S
OLATHE EXE     MOCLDY    76  69  79 S5        29.84R
SALINA         PTCLDY    73  66  78 S8        29.81R
TOPEKA BILLARD PTCLDY    78  70  76 S7        29.81S
TOPEKA FORBES  PTCLDY    73  68  84 S6        29.82S
$$


USA.gov is the U.S. government's official web portal to all federal, state and local government web resources and services.